DW0126 Weather Reports


time (UTC)temp
C
wind
direction
speed
KPH
gust
KPH
rain 1hr
cm
rain 24hr
cm
rain mn
cm
humidity
%
barometer
mb
20260505122216 12 0.0 0.0 0.00 0.00 0.00 86 1013.9
20260505121216 12 0.0 0.0 0.00 0.00 0.00 86 1013.9
20260505120216 12 0.0 0.0 0.00 0.00 0.00 86 1013.8
20260505115216 12 248 3.2 4.8 0.00 0.00 0.00 86 1013.9
20260505114216 12 225 3.2 4.8 0.00 0.00 0.00 86 1013.8
20260505113216 12 248 4.8 6.4 0.00 0.00 0.00 86 1013.9
20260505112236 12 225 4.8 9.7 0.00 0.00 0.00 86 1013.8
20260505111216 12 225 3.2 6.4 0.00 0.00 0.00 86 1013.8
20260505110216 12 225 8.0 11.3 0.00 0.00 0.00 86 1013.8
20260505102216 12 225 4.8 11.3 0.00 0.00 0.00 86 1013.5
20260505101216 12 225 4.8 9.7 0.00 0.00 0.00 86 1013.4
20260505100236 12 203 4.8 9.7 0.00 0.00 0.00 86 1013.4
20260505095236 12 203 6.4 9.7 0.00 0.00 0.00 86 1013.5
20260505094236 12 203 3.2 4.8 0.00 0.00 0.00 86 1013.3
20260505093216 12 225 4.8 6.4 0.00 0.00 0.00 86 1013.2
20260505092216 12 225 3.2 4.8 0.00 0.00 0.00 86 1013.1
20260505091216 12 225 6.4 9.7 0.00 0.00 0.00 86 1013.1
20260505090216 12 225 4.8 8.0 0.00 0.00 0.00 86 1013.0
20260505085216 12 225 6.4 11.3 0.00 0.00 0.00 86 1013.0
20260505084236 12 203 6.4 12.9 0.00 0.00 0.00 86 1012.9
20260505083216 12 225 6.4 9.7 0.00 0.00 0.00 86 1012.9
20260505082216 12 225 8.0 16.1 0.00 0.00 0.00 86 1012.8
20260505081236 12 225 4.8 9.7 0.00 0.00 0.00 86 1012.9
20260505080216 12 203 3.2 4.8 0.00 0.00 0.00 86 1012.9
20260505075216 12 203 6.4 9.7 0.00 0.00 0.00 86 1012.8
20260505074216 12 225 4.8 8.0 0.00 0.00 0.00 87 1012.7
20260505073236 12 225 3.2 6.4 0.00 0.00 0.00 87 1012.5
20260505072256 12 180 4.8 8.0 0.00 0.00 0.00 88 1012.4
20260505071216 12 225 3.2 4.8 0.00 0.00 0.00 88 1012.2
20260505070236 12 248 4.8 8.0 0.00 0.00 0.00 88 1012.0
20260505065217 12 225 4.8 6.4 0.00 0.00 0.00 88 1012.0
20260505064217 12 225 4.8 9.7 0.00 0.00 0.00 88 1012.0
20260505063217 12 225 3.2 8.0 0.00 0.00 0.00 87 1011.8
20260505062217 12 180 1.6 4.8 0.00 0.00 0.00 87 1011.6
20260505061217 12 0.0 3.2 0.00 0.00 0.00 87 1011.4
20260505060217 12 248 4.8 6.4 0.00 0.00 0.00 86 1011.3
20260505055217 12 225 6.4 8.0 0.00 0.00 0.00 86 1011.3
20260505054217 12 248 6.4 11.3 0.00 0.00 0.00 86 1011.2
20260505053217 12 248 3.2 4.8 0.00 0.00 0.00 85 1011.3
20260505052217 12 225 3.2 6.4 0.00 0.00 0.00 85 1011.2
20260505051217 12 203 4.8 8.0 0.00 0.00 0.00 84 1011.1
20260505050217 12 225 3.2 6.4 0.00 0.00 0.00 84 1011.0
20260505041216 13 248 4.8 6.4 0.00 0.00 0.00 81 1010.6
20260505040237 13 225 4.8 6.4 0.00 0.00 0.00 80 1010.5
20260505035217 14 248 4.8 11.3 0.00 0.00 0.00 78 1010.4
20260505034217 15 225 6.4 12.9 0.00 0.00 0.00 76 1010.2
20260505033217 15 225 8.0 12.9 0.00 0.00 0.00 74 1010.2
20260505032217 16 225 6.4 12.9 0.00 0.00 0.00 72 1010.0
20260505031237 16 225 4.8 9.7 0.00 0.00 0.00 71 1009.9
20260505030217 16 225 8.0 12.9 0.00 0.00 0.00 69 1009.8
20260505025236 17 270 8.0 11.3 0.00 0.00 0.00 67 1009.6
20260505024217 17 225 8.0 12.9 0.00 0.00 0.00 65 1009.5
20260505023217 18 225 11.3 17.7 0.00 0.00 0.00 63 1009.4
20260505022237 19 225 11.3 17.7 0.00 0.00 0.00 61 1009.3
20260505021217 20 203 9.7 19.3 0.00 0.00 0.00 59 1009.3
20260505020216 20 225 9.7 17.7 0.00 0.00 0.00 59 1009.3
20260505015237 20 225 8.0 12.9 0.00 0.00 0.00 58 1009.2
20260505014217 20 225 12.9 19.3 0.00 0.00 0.00 57 1009.2
20260505013216 21 225 9.7 12.9 0.00 0.00 0.00 55 1009.2
20260505012216 21 225 4.8 8.0 0.00 0.00 0.00 56 1009.3
20260505011237 21 225 9.7 19.3 0.00 0.00 0.00 55 1009.3
20260505010216 22 225 12.9 24.1 0.00 0.00 0.00 54 1009.2
20260505005217 22 248 9.7 16.1 0.00 0.00 0.00 53 1009.3
20260505004257 23 248 8.0 12.9 0.00 0.00 0.00 52 1009.3
20260505003216 23 203 9.7 16.1 0.00 0.00 0.00 51 1009.2
20260505002216 23 203 11.3 14.5 0.00 0.00 0.00 49 1009.0
20260505001217 24 225 4.8 9.7 0.00 0.00 0.00 47 1009.1
20260505000218 24 203 8.0 14.5 0.00 0.00 0.00 47 1009.1
20260504235217 24 248 8.0 9.7 0.00 0.00 0.00 47 1009.1
20260504234217 25 248 8.0 9.7 0.00 0.00 0.00 46 1009.2
20260504233217 25 225 8.0 14.5 0.00 0.00 0.00 47 1009.2
20260504232216 25 225 11.3 17.7 0.00 0.00 0.00 47 1009.2
20260504231217 25 225 9.7 14.5 0.00 0.00 0.00 46 1009.2
20260504230216 25 248 8.0 14.5 0.00 0.00 0.00 47 1009.3
20260504225216 25 203 4.8 8.0 0.00 0.00 0.00 47 1009.4
20260504224217 25 225 8.0 11.3 0.00 0.00 0.00 49 1009.5
20260504223216 24 225 9.7 16.1 0.00 0.00 0.00 49 1009.4
20260504222216 24 225 4.8 9.7 0.00 0.00 0.00 49 1009.5
20260504221217 24 225 8.0 12.9 0.00 0.00 0.00 49 1009.6
20260504220216 24 248 9.7 16.1 0.00 0.00 0.00 49 1009.7
20260504215216 24 248 8.0 14.5 0.00 0.00 0.00 48 1009.8
20260504214217 23 248 9.7 14.5 0.00 0.00 0.00 48 1009.9
20260504213216 23 248 8.0 12.9 0.00 0.00 0.00 53 1009.9
20260504212217 23 248 8.0 12.9 0.00 0.00 0.00 54 1010.1
20260504211217 23 248 8.0 12.9 0.00 0.00 0.00 55 1010.1
20260504210217 23 248 9.7 14.5 0.00 0.00 0.00 57 1010.1
20260504205216 22 248 8.0 14.5 0.00 0.00 0.00 58 1010.3
20260504204217 22 248 9.7 14.5 0.00 0.00 0.00 59 1010.3
20260504203217 22 248 8.0 14.5 0.00 0.00 0.00 59 1010.2
20260504202217 22 248 8.0 12.9 0.00 0.00 0.00 59 1010.4
20260504201217 22 225 6.4 12.9 0.00 0.00 0.00 61 1010.4
20260504200216 22 248 8.0 12.9 0.00 0.00 0.00 61 1010.5
20260504195216 22 293 4.8 9.7 0.00 0.00 0.00 62 1010.5
20260504194217 21 225 6.4 9.7 0.00 0.00 0.00 63 1010.5
20260504193217 21 248 8.0 12.9 0.00 0.00 0.00 63 1010.5
20260504192217 21 270 8.0 14.5 0.00 0.00 0.00 63 1010.6
20260504191217 21 293 6.4 19.3 0.00 0.00 0.00 64 1010.8
20260504190216 21 225 6.4 12.9 0.00 0.00 0.00 65 1010.8
20260504185237 20 225 8.0 12.9 0.00 0.00 0.00 66 1010.8
20260504184217 20 248 9.7 14.5 0.00 0.00 0.00 65 1010.9
20260504183216 20 248 9.7 16.1 0.00 0.00 0.00 65 1011.0
20260504182237 20 270 6.4 11.3 0.00 0.00 0.00 63 1010.9
20260504181216 20 248 4.8 8.0 0.00 0.00 0.00 65 1011.0
20260504180216 19 225 4.8 8.0 0.00 0.00 0.00 67 1010.9
20260504175217 18 225 4.8 9.7 0.00 0.00 0.00 68 1011.0
20260504174217 18 270 4.8 9.7 0.00 0.00 0.00 70 1010.9
20260504173236 18 248 8.0 12.9 0.00 0.00 0.00 71 1010.8
20260504172216 17 270 6.4 14.5 0.00 0.00 0.00 72 1011.0
20260504171216 17 248 4.8 8.0 0.00 0.00 0.00 72 1011.0
20260504170216 17 225 6.4 12.9 0.00 0.00 0.00 73 1010.8
20260504160216 15 225 8.0 17.7 0.00 0.00 0.00 78 1010.6
20260504150217 13 225 6.4 11.3 0.00 0.00 0.00 85 1010.3
20260504141217 10 0.0 1.6 0.00 0.00 0.00 91 1010.0
20260504140217 10 0.0 0.0 0.00 0.00 0.00 91 1009.8
20260504130216 9 0.0 0.0 0.00 0.00 0.00 89 1009.3